Location: *
(42.3442°N, 9.2072°E)
Time: 19:45:17
(UTC+00:00)

Resurs 01 Rocket - Pass Details

Date: 09 April 2020
Orbit: 635 x 644 km, 98.0° (Epoch: 01 June)

Event Time Altitude Azimuth Distance (km) Brightness Sun altitude
Exits shadow 19:17:43 24° 116° (ESE) 1,307 2.6 -14.7°
Maximum altitude 19:19:35 35° 70° (ENE) 1,024 2.3 -15.0°
Drops below altitude 10° 19:23:37 10° 4° (N) 2,034 4.5 -15.7°
Sets 19:25:57 0° 356° (N) 2,949 5.5 -16.0°
